| Temperature (°F) | Max | Average | Min |
|---|---|---|---|
| Max Temperature | 58 | 41.63 | 30 |
| Avg Temperature | 52.88 | 37.18 | 25.82 |
| Min Temperature | 48 | 31.93 | 19 |
| Dew Point (°F) | Max | Average | Min |
|---|---|---|---|
| Dew Point | 52 | 27.67 | 5 |
| Precipitation (in) | Max | Average | Min | Sum |
|---|---|---|---|---|
| Precipitation | 1.37 | 0.12 | 0.00 | 3.74 |
| Snowdepth | 0.00 | 0.00 | 0.00 | 0.00 |
| Wind (mph) | Max | Average | Min |
|---|---|---|---|
| Wind | 32 | 9.51 | 0 |
| Gust Wind | 43 | 3.3 | 0 |
| Sea Level Pressure (in) | Max | Average | Min |
|---|---|---|---|
| Sea Level Pressure | 29.88 | 29.38 | 28.77 |
| Date | Temperature (°F) | Dew Point (°F) | Humidity (%) | Wind Speed (mph) | Pressure (in) | Precipitation (in) | ||||||||||
|---|---|---|---|---|---|---|---|---|---|---|---|---|---|---|---|---|
| Max | Avg | Min | Max | Avg | Min | Max | Avg | Min | Max | Avg | Min | Max | Avg | Min | ||
| 11/30/2018 | 44 | 34.7 | 30 | 30 | 28.3 | 26 | 89 | 78.3 | 55 | 7 | 2.3 | 0 | 29.4 | 29.3 | 29.3 | 0.02 |
| 11/29/2018 | 45 | 29.9 | 31 | 30 | 23.3 | 17 | 100 | 76.7 | 66 | 12 | 7.0 | 3 | 29.4 | 29.3 | 29.3 | 0.00 |
| 11/28/2018 | 34 | 29.0 | 26 | 19 | 16.9 | 15 | 67 | 60.9 | 58 | 16 | 12.3 | 6 | 29.4 | 29.3 | 29.2 | 0.00 |
| 11/27/2018 | 30 | 30.3 | 28 | 20 | 18.5 | 17 | 66 | 62.0 | 56 | 21 | 15.0 | 12 | 29.2 | 29.1 | 29.1 | 0.32 |
| 11/26/2018 | 33 | 35.9 | 28 | 34 | 29.6 | 21 | 87 | 78.3 | 66 | 22 | 17.6 | 13 | 29.1 | 28.9 | 28.8 | 0.28 |
| 11/25/2018 | 42 | 44.7 | 31 | 36 | 34.1 | 32 | 71 | 66.5 | 61 | 16 | 6.9 | 0 | 29.2 | 29.2 | 29.0 | 0.08 |
| 11/24/2018 | 47 | 46.7 | 42 | 44 | 40.5 | 33 | 86 | 79.2 | 65 | 20 | 12.7 | 6 | 29.2 | 29.0 | 28.9 | 0.30 |
| 11/23/2018 | 50 | 38.5 | 42 | 33 | 26.4 | 19 | 72 | 61.9 | 55 | 12 | 7.9 | 3 | 29.7 | 29.5 | 29.2 | 0.00 |
| 11/22/2018 | 46 | 25.8 | 29 | 19 | 11.3 | 5 | 61 | 54.3 | 46 | 13 | 8.4 | 5 | 29.9 | 29.8 | 29.7 | 0.00 |
| 11/21/2018 | 31 | 31.9 | 22 | 26 | 17.7 | 5 | 70 | 56.1 | 42 | 16 | 12.5 | 8 | 29.8 | 29.6 | 29.4 | 0.00 |
| 11/20/2018 | 37 | 32.4 | 23 | 29 | 23.5 | 15 | 85 | 71.0 | 46 | 18 | 10.1 | 5 | 29.5 | 29.4 | 29.3 | 0.05 |
| 11/19/2018 | 35 | 31.9 | 28 | 29 | 26.3 | 23 | 92 | 80.3 | 65 | 10 | 4.9 | 0 | 29.5 | 29.4 | 29.3 | 0.08 |
| 11/18/2018 | 40 | 34.3 | 26 | 31 | 28.4 | 25 | 85 | 79.4 | 67 | 7 | 3.0 | 0 | 29.6 | 29.6 | 29.5 | 0.04 |
| 11/17/2018 | 37 | 37.6 | 30 | 30 | 27.0 | 25 | 73 | 66.1 | 55 | 14 | 6.7 | 3 | 29.6 | 29.6 | 29.4 | 0.00 |
| 11/16/2018 | 41 | 35.1 | 34 | 31 | 28.8 | 26 | 85 | 78.0 | 70 | 21 | 13.7 | 9 | 29.4 | 29.2 | 29.1 | 0.25 |
| 11/15/2018 | 39 | 33.9 | 32 | 31 | 27.5 | 16 | 85 | 78.0 | 56 | 10 | 5.2 | 0 | 29.7 | 29.4 | 29.2 | 0.00 |
| 11/14/2018 | 35 | 27.2 | 29 | 18 | 13.4 | 9 | 71 | 56.5 | 43 | 13 | 5.0 | 0 | 29.9 | 29.8 | 29.8 | 0.00 |
| 11/13/2018 | 34 | 32.0 | 19 | 30 | 24.3 | 10 | 85 | 74.1 | 51 | 17 | 9.5 | 5 | 29.8 | 29.6 | 29.5 | 0.12 |
| 11/12/2018 | 37 | 35.6 | 25 | 31 | 26.1 | 21 | 87 | 69.2 | 57 | 10 | 4.0 | 0 | 29.6 | 29.6 | 29.5 | 0.00 |
| 11/11/2018 | 42 | 34.1 | 28 | 22 | 20.1 | 18 | 69 | 57.6 | 43 | 15 | 9.7 | 5 | 29.7 | 29.6 | 29.6 | 0.00 |
| 11/10/2018 | 41 | 30.9 | 29 | 25 | 20.4 | 12 | 75 | 65.1 | 57 | 23 | 14.0 | 7 | 29.7 | 29.5 | 29.3 | 0.19 |
| 11/9/2018 | 37 | 36.0 | 23 | 33 | 28.9 | 16 | 89 | 76.4 | 52 | 24 | 10.3 | 3 | 29.6 | 29.3 | 29.2 | 0.11 |
| 11/8/2018 | 40 | 39.7 | 30 | 31 | 26.0 | 23 | 73 | 58.6 | 47 | 10 | 6.6 | 0 | 29.7 | 29.6 | 29.5 | 0.00 |
| 11/7/2018 | 43 | 42.5 | 36 | 35 | 29.4 | 27 | 70 | 60.0 | 55 | 20 | 14.6 | 7 | 29.5 | 29.4 | 29.2 | 0.00 |
| 11/6/2018 | 47 | 52.9 | 40 | 52 | 44.9 | 35 | 90 | 74.8 | 61 | 32 | 20.3 | 8 | 29.2 | 28.9 | 28.8 | 0.16 |
| 11/5/2018 | 58 | 51.7 | 45 | 47 | 42.7 | 37 | 86 | 72.1 | 53 | 21 | 11.2 | 3 | 29.3 | 29.3 | 29.1 | 0.13 |
| 11/4/2018 | 57 | 47.2 | 48 | 42 | 35.4 | 29 | 73 | 63.8 | 53 | 17 | 8.4 | 0 | 29.7 | 29.6 | 29.3 | 0.00 |
| 11/3/2018 | 50 | 42.7 | 37 | 36 | 31.5 | 27 | 79 | 65.7 | 46 | 15 | 7.5 | 0 | 29.7 | 29.4 | 29.2 | 0.00 |
| 11/2/2018 | 48 | 44.5 | 43 | 40 | 38.0 | 36 | 85 | 77.5 | 68 | 20 | 10.2 | 6 | 29.2 | 29.1 | 28.9 | 1.37 |
| 11/1/2018 | 49 | 46.0 | 44 | 43 | 40.7 | 39 | 87 | 81.8 | 77 | 15 | 7.7 | 0 | 29.3 | 29.1 | 29.0 | 0.24 |